{"data":{"norad_id":52112,"epoch":"2026-09-19T14:22:23.015136Z","epoch_age_seconds":134111,"freshness":"FRESH","line1":"1 52112U 22029AA  26262.59887749  .00017583  00000+0  57806-3 0  9993","line2":"2 52112  53.1625 253.5434 0001192  72.3097 287.8035 15.31642277250550","mean_motion":15.31642277,"eccentricity":0.0001192,"inclination_deg":53.1625,"raan_deg":253.5434,"arg_perigee_deg":72.3097,"mean_anomaly_deg":287.8035,"bstar":0.00057806,"rev_number":25055,"period_min":94.016731035951,"perigee_km":470.09566323981,"apogee_km":471.72847653807,"semimajor_km":6849.0490698889,"source":"CELESTRAK","updated_at":"2026-09-20T09:00:39.987804Z"}}